Location: Limerick
(52.6800°N, 8.6400°W)
Time: 14:12:42
(UTC+01:00)

Sapphire - Visible Passes

Search period start: 07 July 2015 00:00
Search period end: 17 July 2015 00:00
Orbit: 787 x 795 km, 67.1° (Epoch: 06 July)

Date Brightness Start Highest point End Pass type
(mag) Time Alt. Az. Time Alt. Az. Time Alt. Az.
07 Jul ? 00:18:46 10° NW 00:24:11 64° NE 00:29:09 12° SE visible
07 Jul ? 02:02:38 10° NW 02:07:19 30° WSW 02:09:51 20° SSW visible
07 Jul ? 23:48:12 10° NW 23:53:32 52° NE 23:58:50 10° ESE visible
08 Jul ? 01:31:52 10° NW 01:36:52 38° WSW 01:39:41 22° SSW visible
08 Jul ? 23:17:38 10° NNW 23:22:50 43° NE 23:28:01 10° ESE visible
09 Jul ? 01:01:10 10° NW 01:06:24 49° WSW 01:09:35 22° S visible
09 Jul ? 22:47:05 10° NNW 22:52:06 37° NE 22:57:09 10° ESE visible
10 Jul ? 00:30:31 10° NW 00:35:53 63° WSW 00:39:31 21° SSE visible
10 Jul ? 02:16:09 10° W 02:18:23 12° WSW 02:20:14 10° SW visible
10 Jul ? 23:59:53 10° NW 00:05:21 79° SW 00:09:31 17° SSE visible
11 Jul ? 01:44:40 10° WNW 01:48:02 16° WSW 01:50:14 13° SW visible
11 Jul ? 23:29:18 10° NW 23:34:46 84° NE 23:39:33 14° SE visible
12 Jul ? 01:13:34 10° WNW 01:17:39 21° WSW 01:20:16 15° SW visible
12 Jul ? 22:58:43 10° NW 23:04:10 68° NE 23:09:34 10° SE visible
13 Jul ? 00:42:39 10° NW 00:47:14 28° WSW 00:50:20 16° SSW visible
14 Jul ? 00:11:53 10° NW 00:16:48 35° WSW 00:20:26 16° S visible
14 Jul ? 23:41:09 10° NW 23:46:20 45° WSW 23:50:35 15° S visible
15 Jul ? 23:10:29 10° NW 23:15:49 58° WSW 23:20:47 12° SSE visible
16 Jul ? 00:56:35 10° W 00:58:16 11° WSW 00:59:41 10° WSW visible
16 Jul ? 22:39:51 10° NW 22:45:17 74° SW 22:50:42 10° SSE visible
